Rasmus Kristensen

Chefscout - Esbjerg
3 Apr 2027
Samstag
Verarbeitung

Persönlichkeit

Anpassungsfähigkeit (17) Ehrgeiz (1) Kontroverse (11) Loyalität (15) Druck (13) Professionalität (8) Fairness (2) Temperament (9)

Profil

Trainerstil Demokratisch
Lizenz Kontinentale C
Entschlossenheit 7
Menschenführung 5
Motivation 9
Disziplin 11
Arbeitszufriedenheit
100%
Ermüdung
0%
Rolle Chefscout
Gehalt 25.0K p/W
Vertrag 14.03.2028

Leistung

Verhalten Gut
Trainingseffektivität
31%
Spielerentwicklung
50%
Verletzungsprävention
20%
Taktische Umsetzung
30%

Letzte Ereignisse

Spieler begutachtet 7T her
Nahm an einer Scouting-Besprechung teil 7T her
Spieler begutachtet 7T her
Spieler begutachtet 7T her
Spieler begutachtet 7T her
Spieler begutachtet 7T her
Spieler begutachtet 14T her
Spieler begutachtet 14T her

Aktuell beobachtet

130
Spieler Verein Status Fähigkeit Vertrauen Beobachtet Zuletzt beobachtet Letzte Stimme
Paddy Lane Reading Aktiv 115 / 120 40% 4 30.03.2027 -
Yaw Boateng Hasaacas Aktiv 107 / 82 40% 1 30.03.2027 -
Declan Frith Peterborough United Aktiv 119 / 104 40% 3 28.03.2027 -
Zak Swanson Doncaster Rovers Aktiv 130 / 123 40% 1 28.03.2027 -
Odin Bailey Stockport County Aktiv 123 / 111 40% 2 27.03.2027 -
Johnly Yfeko Exeter City Aktiv 118 / 131 40% 1 27.03.2027 -
Brian Figueroa Morelia Aktiv 117 / 105 40% 7 25.03.2027 -
Georgie Gent Barnsley Aktiv 117 / 123 40% 1 25.03.2027 -
Juan Bezerra Zamalek Aktiv 137 / 122 40% 4 24.03.2027 -
Itumeleng Tau Ajax Cape Town Aktiv 128 / 123 40% 4 22.03.2027 -
Leandro Andrade Polissia Aktiv 123 / 126 40% 4 22.03.2027 -
Armstrong Oko-Flex Levski Aktiv 130 / 112 40% 1 19.03.2027 -
Ronaldo Rostov Aktiv 122 / 135 40% 1 19.03.2027 -
John Yeboah Venezia Aktiv 105 / 110 40% 1 18.03.2027 -
Marko Farji Venezia Aktiv 133 / 128 40% 1 18.03.2027 -
Ethan Williams Peterborough United Aktiv 123 / 129 40% 3 17.03.2027 -
Charlie Whitaker Tranmere Rovers Aktiv 85 / 84 40% 1 17.03.2027 -
Jonathan Sulemana BA All Stars Aktiv 96 / 106 40% 1 15.03.2027 -
Carlos Paraco Metalist Aktiv 106 / 116 40% 1 15.03.2027 -
Danyil Alefirenko Chornomorets Aktiv 102 / 114 40% 5 14.03.2027 -
Kane Wilson Milton Keynes Dons Aktiv 128 / 95 40% 1 14.03.2027 -
Charlie Webster Burton Albion Aktiv 113 / 109 40% 2 12.03.2027 -
Keagan Hlatshwayo SuperSport United Aktiv 113 / 103 40% 1 12.03.2027 -
Ali Soliman Masr El Makasa Aktiv 114 / 116 40% 6 10.03.2027 -
Mark Helm Fleetwood Town Aktiv 96 / 91 40% 1 10.03.2027 -
Haissem Hassan Bloemfontein Celtic Aktiv 137 / 141 40% 1 09.03.2027 -
Alex Lowry Wycombe Wanderers Aktiv 132 / 110 40% 1 08.03.2027 -
Mduduzi Shabalala Kaizer Chiefs Aktiv 110 / 126 40% 8 07.03.2027 -
Siyanda Ndlovu Hearts of Oak Aktiv 114 / 136 40% 3 07.03.2027 -
Jack Currie Oxford United Aktiv 108 / 112 40% 2 06.03.2027 -
Mauro Rodrigues Botev Plovdiv Aktiv 106 / 112 40% 5 04.03.2027 -
Ibrahim Cissoko Zwolle Aktiv 111 / 112 40% 1 01.03.2027 -
Akinkunmi Amoo Ismaily Aktiv 130 / 105 40% 2 28.02.2027 -
Solly Khunyedi Bloemfontein Celtic Aktiv 84 / 84 40% 2 28.02.2027 -
Dejan Zukić Vojvodina Aktiv 120 / 133 40% 3 27.02.2027 -
David Buchta Radnicki 1923 Aktiv 131 / 115 40% 1 26.02.2027 -
Peter Federico Gornik Zabrze Aktiv 119 / 134 40% 2 24.02.2027 -
Bienvenue Kanakimana Zbrojovka Brno Aktiv 121 / 118 40% 1 24.02.2027 -
Diego Valencia Gornik Leczna Aktiv 119 / 100 40% 1 22.02.2027 -
Yehor Tverdokhlib LNZ Aktiv 122 / 116 40% 1 22.02.2027 -
Dale Taylor Blackpool Aktiv 115 / 125 40% 2 21.02.2027 -
Mohamed Ali Ben Romdhane Al Ahly Aktiv 142 / 109 40% 1 21.02.2027 -
Oswin Appollis Orlando Pirates Aktiv 108 / 113 40% 2 20.02.2027 -
José Martínes CSKA 1948 Aktiv 116 / 108 40% 2 18.02.2027 -
Armando Shashoua Walsall Aktiv 108 / 115 40% 2 18.02.2027 -
Simon Ramabu Polokwane City Aktiv 96 / 117 40% 2 16.02.2027 -
Xavier Amaechi Plymouth Argyle Aktiv 117 / 108 40% 2 16.02.2027 -
Thulani Mabaso Platinum Stars Aktiv 118 / 114 40% 1 15.02.2027 -
Artem Slesar Zorya Aktiv 103 / 124 40% 4 12.02.2027 -
Phoenix Patterson Stevenage Aktiv 98 / 97 40% 1 12.02.2027 -
Kyreece Lisbie Colchester United Aktiv 102 / 112 40% 6 11.02.2027 -
Josué Tiendrébéogo IMT Aktiv 111 / 119 40% 1 10.02.2027 -
Helinho Toluca Aktiv 150 / 134 40% 1 05.02.2027 -
Michal Kohút Banik Ostrava Aktiv 129 / 121 40% 1 03.02.2027 -
Vitalii Dakhnovskyi Bukovyna Aktiv 119 / 103 40% 3 02.02.2027 -
Lukáš Červ Viktoria Plzen Aktiv 141 / 134 40% 1 02.02.2027 -
Brooklyn Poggenpoel Maritzburg United Aktiv 117 / 102 40% 1 25.01.2027 -
Jenson Metcalfe Bradford City Aktiv 110 / 113 40% 1 25.01.2027 -
Ibrahim Tarek Masr El Makasa Aktiv 134 / 131 40% 2 18.01.2027 -
Reyes Cleary Barnsley Aktiv 126 / 126 40% 1 11.01.2027 -
Camilo Durán Bloemfontein Celtic Aktiv 116 / 136 40% 2 09.01.2027 -
Noah Ganaus OB Aktiv 115 / 107 40% 5 05.01.2027 -
Victor Bak FC Midtjylland Aktiv 121 / 127 40% 2 05.01.2027 -
Pedro Bravo FC Midtjylland Aktiv 110 / 135 40% 1 03.01.2027 -
Allahyar Sayyadmanesh Lech Aktiv 137 / 117 40% 1 02.01.2027 -
Thabang Matuludi Polokwane City Aktiv 100 / 114 40% 3 31.12.2026 -
Gift Zwane Platinum Stars Aktiv 110 / 125 40% 2 31.12.2026 -
Tony Springett Cheltenham Town Aktiv 107 / 107 40% 1 26.12.2026 -
Teboho Tau Ajax Cape Town Aktiv 127 / 114 40% 5 23.12.2026 -
Sabil Hansen Randers Aktiv 103 / 110 40% 1 23.12.2026 -
Archie Collins Peterborough United Aktiv 103 / 119 40% 1 22.12.2026 -
Dan Kemp Stevenage Aktiv 108 / 98 40% 1 22.12.2026 -
Andrei Cordea CFR Cluj Aktiv 114 / 112 40% 1 19.12.2026 -
Junior Quitirna Wycombe Wanderers Aktiv 120 / 108 40% 1 18.12.2026 -
Marko Brest Olimpija Ljubljana Aktiv 122 / 110 40% 2 17.12.2026 -
Fábio Tavares Newport County Aktiv 88 / 110 40% 1 16.12.2026 -
Adam Sørensen OB Aktiv 118 / 114 40% 2 15.12.2026 -
Carlos Gutiérrez Montana Aktiv 104 / 113 40% 1 13.12.2026 -
Marko Divković Brondby Aktiv 129 / 129 40% 1 13.12.2026 -
Mike Themsen Randers Aktiv 109 / 116 40% 2 12.12.2026 -
Mads Frøkjær Brondby Aktiv 122 / 113 40% 4 11.12.2026 -
Villum Berthelsen FC Nordsjaelland Aktiv 125 / 116 40% 1 10.12.2026 -
Kelly Saravanan Salford City Aktiv 108 / 123 40% 1 09.12.2026 -
Ronaldo Maarman University of Pretoria Aktiv 105 / 107 40% 1 08.12.2026 -
Bilal Brahimi Viborg Aktiv 123 / 120 40% 2 06.12.2026 -
Bartosz Slisz Brondby Aktiv 115 / 120 40% 1 03.12.2026 -
Ştefan Baiaram Universitatea Craiova Aktiv 125 / 132 40% 1 01.12.2026 -
Darragh Burns Grimsby Town Aktiv 104 / 100 40% 1 01.12.2026 -
Agustín Ramírez Inter Aktiv 96 / 122 40% 2 28.11.2026 -
Nikolas Dyhr Randers Aktiv 112 / 107 40% 1 28.11.2026 -
Arinaldo Rrapaj Kolos Aktiv 116 / 103 40% 1 26.11.2026 -
Denil Castillo FC Midtjylland Verloren 108 / 138 40% 1 23.11.2026 Mehr Infos nötig
Oliver Villadsen Brondby Aktiv 129 / 111 40% 1 22.11.2026 -
Alexander Díaz Deportivo Riestra Aktiv 135 / 136 40% 1 22.11.2026 -
Daniel Kyerewaa Reading Aktiv 110 / 101 40% 3 21.11.2026 -
Tomás O'Connor Gimnasia y Esgrima Aktiv 108 / 124 40% 1 21.11.2026 -
Ismaïl Seydi SonderjyskE Aktiv 99 / 111 40% 1 16.11.2026 -
Robert Petkovic Zadar Aktiv 116 / 115 40% 2 13.11.2026 -
Valdemar Byskov FC Midtjylland Aktiv 123 / 118 40% 2 13.11.2026 -
Sead Hakšabanović Malmo FF Aktiv 131 / 124 40% 1 08.11.2026 -
Lukas Klitten Hobro Aktiv 109 / 91 40% 2 07.11.2026 -
Erick Ngcobo Black Aces Aktiv 89 / 105 40% 2 03.11.2026 -
Oliver Bundgaard Viborg Aktiv 113 / 112 40% 2 29.10.2026 -
Jean-Manuel Mbom Viborg Aktiv 113 / 104 40% 1 28.10.2026 -
Thalente Mbatha Orlando Pirates Aktiv 135 / 125 40% 1 28.10.2026 -
Valentín Depietri Talleres Aktiv 119 / 106 40% 1 27.10.2026 -
Emil Breivik Molde Aktiv 134 / 129 40% 2 20.10.2026 -
Juho Lähteenmäki FC Nordsjaelland Aktiv 106 / 116 40% 1 18.10.2026 -
Sinoxolo Kwayiba Chippa United Aktiv 98 / 90 40% 1 16.10.2026 -
Conrad Wallem Valerenga Aktiv 117 / 118 40% 1 16.10.2026 -
Edward Chilufya FC Midtjylland Aktiv 112 / 129 40% 1 13.10.2026 -
Charly Nouck Viborg Aktiv 100 / 117 40% 1 13.10.2026 -
Bjarne Pudel Aalborg Aktiv 99 / 109 40% 1 12.10.2026 -
Sayfallah Ltaief Cracovia Aktiv 121 / 127 40% 1 10.10.2026 -
Kornelius Hansen Aalborg Aktiv 102 / 99 40% 1 10.10.2026 -
Juan Pablo De la Reta Maipú Aktiv 97 / 107 40% 1 09.10.2026 -
Lebogang Erasmus Platinum Stars Aktiv 120 / 113 40% 1 07.10.2026 -
Lucas Richarte Temperley Aktiv 95 / 103 40% 1 05.10.2026 -
Gift Mothiba Black Aces Aktiv 108 / 105 40% 1 15.09.2026 -
Žan Zaletel Viborg Aktiv 117 / 102 40% 1 15.09.2026 -
Samuel Gidi FC Cincinnati Aktiv 114 / 103 40% 1 09.09.2026 -
Mads Søndergaard Viborg Aktiv 108 / 100 40% 1 09.09.2026 -
Mikkel Kallesøe Aalborg Aktiv 102 / 104 51% 1 31.08.2026 -
Eric Kahl AGF Aktiv 104 / 123 40% 1 07.08.2026 -
Tomás Galván River Plate Aktiv 133 / 133 40% 1 07.08.2026 -
Francisco Gerometta Godoy Cruz Aktiv 130 / 118 40% 1 03.08.2026 -
Elián Giménez Sarmiento Aktiv 98 / 123 40% 1 03.08.2026 -
Mathias Kubel Aalborg Aktiv 90 / 119 40% 1 03.08.2026 -
Warren Caddy Randers Aktiv 104 / 121 40% 1 03.08.2026 -
Elías López Aldosivi Aktiv 122 / 125 40% 1 01.08.2026 -